CW2900 Weather Reports


Display with metric or nautical units.
time (UTC)temp
F
wind
direction
speed
MPH
gust
MPH
rain 1hr
in
rain 24hr
in
rain mn
in
humidity
%
barometer
mb
20200813104934 79 21 3.0 4.0 0.00 0.00 0.00 32 1017.4
20200813104430 79 20 4.0 4.0 0.00 0.00 0.00 32 1017.5
20200813103930 78 12 3.0 3.0 0.00 0.00 0.00 32 1017.2
20200813103430 78 14 2.0 3.0 0.00 0.00 0.00 32 1017.5
20200813102930 79 13 3.0 5.0 0.00 0.00 0.00 32 1017.5
20200813102500 79 16 4.0 5.0 0.00 0.00 0.00 32 1017.4
20200813101930 79 29 3.0 4.0 0.00 0.00 0.00 31 1017.4
20200813101430 80 51 2.0 3.0 0.00 0.00 0.00 31 1017.6
20200813100930 80 22 3.0 4.0 0.00 0.00 0.00 31 1017.5
20200813100459 80 11 3.0 4.0 0.00 0.00 0.00 31 1017.4
20200813100000 80 2 3.0 4.0 0.00 0.00 0.00 31 1017.4
20200813095429 80 20 2.0 4.0 0.00 0.00 0.00 31 1017.5
20200813094929 80 21 2.0 6.0 0.00 0.00 0.00 31 1017.5
20200813094503 80 12 3.0 6.0 0.00 0.00 0.00 31 1017.4
20200813093929 80 7 5.0 6.0 0.00 0.00 0.00 31 1017.5
20200813093430 80 23 3.0 6.0 0.00 0.00 0.00 31 1017.5
20200813092929 80 20 4.0 6.0 0.00 0.00 0.00 31 1017.6
20200813092429 80 7 5.0 6.0 0.00 0.00 0.00 31 1017.5
20200813092005 80 11 4.0 4.0 0.00 0.00 0.00 31 1017.5
20200813091001 80 20 4.0 5.0 0.00 0.00 0.00 31 1017.6
20200813090459 80 10 4.0 6.0 0.00 0.00 0.00 31 1017.7
20200813085929 80 4 5.0 6.0 0.00 0.00 0.00 31 1017.7
20200813085428 80 6 5.0 6.0 0.00 0.00 0.00 31 1017.8
20200813084928 80 25 4.0 6.0 0.00 0.00 0.00 30 1017.8
20200813084458 80 4 3.0 6.0 0.00 0.00 0.00 30 1017.7
20200813083958 80 11 3.0 5.0 0.00 0.00 0.00 30 1017.7
20200813083459 80 16 4.0 5.0 0.00 0.00 0.00 30 1017.8
20200813082929 80 15 3.0 4.0 0.00 0.00 0.00 30 1017.8
20200813082428 80 3 4.0 6.0 0.00 0.00 0.00 30 1017.8
20200813081958 80 11 5.0 6.0 0.00 0.00 0.00 30 1017.8
20200813081428 79 12 4.0 7.0 0.00 0.00 0.00 31 1017.7
20200813081001 79 9 6.0 7.0 0.00 0.00 0.00 31 1017.8
20200813080501 78 6 6.0 6.0 0.00 0.00 0.00 31 1017.8
20200813075958 78 16 4.0 5.0 0.00 0.00 0.00 31 1017.6
20200813075459 78 18 3.0 5.0 0.00 0.00 0.00 31 1017.5
20200813075028 78 12 4.0 4.0 0.00 0.00 0.00 31 1017.7
20200813074457 79 13 3.0 5.0 0.00 0.00 0.00 31 1017.9
20200813073958 80 6 3.0 5.0 0.00 0.00 0.00 30 1018.0
20200813073457 81 1 3.0 3.0 0.00 0.00 0.00 29 1018.2
20200813072957 81 2 3.0 3.0 0.00 0.00 0.00 29 1018.2
20200813072457 81 22 3.0 3.0 0.00 0.00 0.00 29 1018.2
20200813071957 82 58 1.0 5.0 0.00 0.00 0.00 28 1017.9
20200813071457 83 4 0.0 5.0 0.00 0.00 0.00 29 1018.3
20200813070957 80 2 5.0 5.0 0.00 0.00 0.00 30 1017.9
20200813070457 81 1 3.0 4.0 0.00 0.00 0.00 29 1018.0
20200813065957 82 2 1.0 6.0 0.00 0.00 0.00 29 1017.7
20200813065457 82 1 4.0 6.0 0.00 0.00 0.00 29 1017.7
20200813064956 82 3 4.0 5.0 0.00 0.00 0.00 29 1017.6
20200813064456 82 359 4.0 7.0 0.00 0.00 0.00 29 1017.5
20200813063958 82 359 5.0 7.0 0.00 0.00 0.00 29 1017.6
20200813063456 82 358 5.0 6.0 0.00 0.00 0.00 28 1017.6
20200813062956 82 6 3.0 6.0 0.00 0.00 0.00 29 1017.5
20200813062456 82 4 3.0 6.0 0.00 0.00 0.00 29 1017.6
20200813061956 83 349 2.0 3.0 0.00 0.00 0.00 28 1017.9
20200813061456 84 308 3.0 4.0 0.00 0.00 0.00 27 1017.8
20200813060956 86 53 1.0 4.0 0.00 0.00 0.00 27 1018.1
20200813060456 86 41 3.0 8.0 0.00 0.00 0.00 27 1018.1
20200813055957 85 46 4.0 9.0 0.00 0.00 0.00 27 1017.6
20200813055456 85 80 5.0 10.0 0.00 0.00 0.00 27 1017.5
20200813054956 85 67 8.0 10.0 0.00 0.00 0.00 27 1017.5
20200813054457 85 27 4.0 6.0 0.00 0.00 0.00 27 1017.5
20200813053955 85 12 4.0 9.0 0.00 0.00 0.00 26 1017.4
20200813053456 86 352 5.0 10.0 0.00 0.00 0.00 26 1017.7
20200813052956 86 1 6.0 11.0 0.00 0.00 0.00 25 1017.6
20200813052459 86 356 10.0 11.0 0.00 0.00 0.00 26 1017.7
20200813051956 86 340 6.0 9.0 0.00 0.00 0.00 25 1017.9
20200813051458 87 342 5.0 9.0 0.00 0.00 0.00 25 1017.8
20200813050955 87 342 7.0 9.0 0.00 0.00 0.00 25 1017.8
20200813050455 86 354 8.0 10.0 0.00 0.00 0.00 26 1017.7
20200813045955 86 350 6.0 10.0 0.00 0.00 0.00 26 1017.4
20200813045457 86 352 7.0 9.0 0.00 0.00 0.00 26 1017.4
20200813044958 86 5 5.0 9.0 0.00 0.00 0.00 26 1017.3
20200813044455 87 8 5.0 11.0 0.00 0.00 0.00 26 1017.6
20200813043955 87 356 4.0 11.0 0.00 0.00 0.00 26 1017.5
20200813043454 87 16 5.0 7.0 0.00 0.00 0.00 26 1017.5
20200813043026 87 15 5.0 10.0 0.00 0.00 0.00 26 1017.6
20200813042454 88 3 6.0 10.0 0.00 0.00 0.00 26 1017.5
20200813042025 87 349 7.0 9.0 0.00 0.00 0.00 26 1017.4
20200813041454 88 357 5.0 11.0 0.00 0.00 0.00 26 1017.4
20200813040956 88 3 7.0 11.0 0.00 0.00 0.00 26 1017.2
20200813040455 88 349 9.0 10.0 0.00 0.00 0.00 26 1017.2
20200813035954 88 352 7.0 10.0 0.00 0.00 0.00 26 1017.0
20200813035454 88 338 8.0 8.0 0.00 0.00 0.00 26 1016.8
20200813034954 88 334 8.0 8.0 0.00 0.00 0.00 26 1016.8
20200813034454 87 342 4.0 5.0 0.00 0.00 0.00 26 1016.6
20200813033953 88 345 3.0 7.0 0.00 0.00 0.00 25 1016.8
20200813033456 88 340 5.0 7.0 0.00 0.00 0.00 25 1016.7
20200813032953 88 346 3.0 6.0 0.00 0.00 0.00 25 1016.7
20200813032453 88 335 4.0 6.0 0.00 0.00 0.00 24 1016.6
20200813031953 89 347 3.0 10.0 0.00 0.00 0.00 23 1016.5
20200813031454 90 330 3.0 11.0 0.00 0.00 0.00 23 1016.9
20200813030953 90 335 8.0 11.0 0.00 0.00 0.00 23 1016.8
20200813030453 90 341 7.0 10.0 0.00 0.00 0.00 23 1016.7
20200813025953 90 345 4.0 9.0 0.00 0.00 0.00 21 1016.0
20200813025454 90 294 5.0 9.0 0.00 0.00 0.00 21 1015.9
20200813024953 90 297 6.0 10.0 0.00 0.00 0.00 20 1016.1
20200813024454 91 302 8.0 10.0 0.00 0.00 0.00 21 1015.9
20200813023954 91 318 5.0 11.0 0.00 0.00 0.00 21 1016.0
20200813023452 91 333 6.0 11.0 0.00 0.00 0.00 20 1016.0
20200813022953 92 342 7.0 11.0 0.00 0.00 0.00 20 1016.2
20200813022453 92 345 6.0 12.0 0.00 0.00 0.00 20 1016.2
20200813021952 93 341 6.0 12.0 0.00 0.00 0.00 19 1016.2
20200813021453 93 295 7.0 13.0 0.00 0.00 0.00 19 1016.1
20200813020953 93 341 9.0 13.0 0.00 0.00 0.00 19 1016.1
20200813020452 94 340 6.0 14.0 0.00 0.00 0.00 19 1016.3
20200813015952 94 338 8.0 14.0 0.00 0.00 0.00 18 1015.6
20200813015452 94 326 11.0 14.0 0.00 0.00 0.00 18 1015.7
20200813014952 95 336 9.0 12.0 0.00 0.00 0.00 18 1015.6
20200813014452 95 333 8.0 12.0 0.00 0.00 0.00 17 1015.5
20200813013952 96 316 8.0 11.0 0.00 0.00 0.00 17 1015.8
20200813012952 96 306 6.0 14.0 0.00 0.00 0.00 17 1015.7
20200813012452 96 341 7.0 17.0 0.00 0.00 0.00 17 1015.7
20200813011951 96 316 6.0 17.0 0.00 0.00 0.00 17 1015.6
20200813011453 96 273 9.0 12.0 0.00 0.00 0.00 17 1015.6
20200813010951 96 314 9.0 14.0 0.00 0.00 0.00 17 1015.7
20200813010452 96 317 6.0 18.0 0.00 0.00 0.00 17 1015.7
20200813005951 96 339 10.0 18.0 0.00 0.00 0.00 17 1015.0
20200813005451 96 317 6.0 13.0 0.00 0.00 0.00 17 1015.0
20200813005022 96 302 9.0 16.0 0.00 0.00 0.00 17 1015.0
20200813004451 96 317 7.0 16.0 0.00 0.00 0.00 17 1015.0
20200813003951 95 319 10.0 12.0 0.00 0.00 0.00 17 1014.9
20200813003451 95 338 6.0 15.0 0.00 0.00 0.00 17 1015.0
20200813002956 96 302 5.0 15.0 0.00 0.00 0.00 17 1015.3
20200813002450 96 324 6.0 14.0 0.00 0.00 0.00 17 1015.2
20200813001951 98 319 10.0 14.0 0.00 0.00 0.00 17 1015.5
20200813001450 99 297 7.0 14.0 0.00 0.00 0.00 17 1015.5
20200813000950 98 298 7.0 15.0 0.00 0.00 0.00 16 1015.4
20200813000452 98 312 4.0 16.0 0.00 0.00 0.00 17 1015.5
20200812235950 98 304 7.0 16.0 0.00 0.00 0.00 17 1015.2
20200812235451 98 330 9.0 12.0 0.00 0.00 0.00 17 1015.3
20200812234950 98 300 8.0 14.0 0.00 0.00 0.00 17 1015.1
20200812234453 98 316 7.0 14.0 0.00 0.00 0.00 17 1015.3
20200812233950 98 342 8.0 14.0 0.00 0.00 0.00 18 1015.2
20200812233550 98 357 4.0 14.0 0.00 0.00 0.00 18 1015.4
20200812232949 98 355 6.0 14.0 0.00 0.00 0.00 18 1015.4
20200812232449 98 299 11.0 14.0 0.00 0.00 0.00 18 1015.3
20200812231950 99 340 12.0 13.0 0.00 0.00 0.00 18 1015.6
20200812231449 98 338 3.0 14.0 0.00 0.00 0.00 18 1015.5
20200812230950 99 348 9.0 15.0 0.00 0.00 0.00 17 1015.7
20200812230452 99 346 14.0 15.0 0.00 0.00 0.00 18 1015.7
20200812225952 99 294 9.0 19.0 0.00 0.00 0.00 18 1016.0
20200812225449 99 336 15.0 19.0 0.00 0.00 0.00 17 1015.8
20200812224949 99 333 7.0 16.0 0.00 0.00 0.00 18 1016.1
20200812224452 99 253 7.0 16.0 0.00 0.00 0.00 18 1016.0
20200812223949 99 344 11.0 14.0 0.00 0.00 0.00 18 1016.1
20200812223449 99 344 13.0 15.0 0.00 0.00 0.00 19 1016.3
20200812222949 99 289 6.0 21.0 0.00 0.00 0.00 18 1016.3
20200812222449 99 8 14.0 21.0 0.00 0.00 0.00 18 1016.4
20200812221949 99 313 6.0 15.0 0.00 0.00 0.00 18 1016.3
20200812221449 98 302 5.0 15.0 0.00 0.00 0.00 16 1016.1
20200812220949 99 261 10.0 15.0 0.00 0.00 0.00 16 1016.3
20200812220448 99 11 10.0 15.0 0.00 0.00 0.00 19 1016.6
20200812215948 99 335 9.0 14.0 0.00 0.00 0.00 17 1016.7
20200812215448 99 340 7.0 13.0 0.00 0.00 0.00 20 1016.8
20200812214949 100 327 11.0 15.0 0.00 0.00 0.00 19 1016.9
20200812214450 100 296 10.0 15.0 0.00 0.00 0.00 16 1016.7
20200812213948 99 338 5.0 13.0 0.00 0.00 0.00 18 1016.7
20200812213450 98 319 4.0 13.0 0.00 0.00 0.00 18 1016.8
20200812212948 98 304 5.0 13.0 0.00 0.00 0.00 18 1016.9
20200812212456 97 346 6.0 13.0 0.00 0.00 0.00 19 1016.6
20200812211948 97 347 10.0 11.0 0.00 0.00 0.00 18 1016.7
20200812211448 97 233 3.0 14.0 0.00 0.00 0.00 17 1016.7
20200812210948 97 352 11.0 14.0 0.00 0.00 0.00 19 1016.8
20200812210448 98 62 1.0 9.0 0.00 0.00 0.00 17 1016.9
20200812205949 97 300 3.0 10.0 0.00 0.00 0.00 18 1016.7
20200812205448 97 7 8.0 11.0 0.00 0.00 0.00 19 1016.7
20200812204947 98 337 5.0 13.0 0.00 0.00 0.00 18 1016.9
20200812204448 98 243 3.0 14.0 0.00 0.00 0.00 18 1017.1
20200812203947 97 317 4.0 14.0 0.00 0.00 0.00 19 1016.9
20200812203517 98 3 12.0 14.0 0.00 0.00 0.00 17 1017.1
20200812202947 98 301 7.0 16.0 0.00 0.00 0.00 18 1017.3
20200812202447 99 291 10.0 16.0 0.00 0.00 0.00 18 1017.1
20200812201948 98 317 6.0 15.0 0.00 0.00 0.00 17 1017.3
20200812201449 98 321 4.0 15.0 0.00 0.00 0.00 18 1017.3
20200812200947 98 324 6.0 15.0 0.00 0.00 0.00 19 1017.2
20200812200447 97 258 11.0 14.0 0.00 0.00 0.00 18 1017.0
20200812195947 98 1 8.0 14.0 0.00 0.00 0.00 19 1017.4
20200812194946 98 335 5.0 14.0 0.00 0.00 0.00 18 1017.6
20200812194448 98 345 5.0 14.0 0.00 0.00 0.00 19 1017.6
20200812193946 98 331 4.0 12.0 0.00 0.00 0.00 18 1017.7
20200812193447 98 295 8.0 15.0 0.00 0.00 0.00 18 1017.7
20200812192946 98 282 7.0 15.0 0.00 0.00 0.00 19 1017.9
20200812192446 98 355 6.0 13.0 0.00 0.00 0.00 19 1018.0
20200812191946 97 121 0.0 8.0 0.00 0.00 0.00 13 1017.9
20200812191446 96 163 4.0 8.0 0.00 0.00 0.00 13 1017.5
20200812190946 96 178 6.0 9.0 0.00 0.00 0.00 10 1017.6
20200812190446 95 200 7.0 9.0 0.00 0.00 0.00 10 1017.7
20200812185946 95 206 2.0 9.0 0.00 0.00 0.00 10 1018.0
20200812185547 95 171 4.0 12.0 0.00 0.00 0.00 10 1018.0
20200812184946 94 183 10.0 12.0 0.00 0.00 0.00 10 1017.7
20200812184446 94 160 7.0 16.0 0.00 0.00 0.00 10 1017.9
20200812183946 94 151 10.0 16.0 0.00 0.00 0.00 9 1017.8
20200812183446 93 159 6.0 10.0 0.00 0.00 0.00 10 1018.1
20200812182948 93 160 8.0 10.0 0.00 0.00 0.00 9 1018.1
20200812182445 93 198 7.0 10.0 0.00 0.00 0.00 10 1018.3
20200812181945 92 172 7.0 14.0 0.00 0.00 0.00 10 1018.0
20200812181446 93 164 9.0 14.0 0.00 0.00 0.00 9 1018.2
20200812180945 92 159 4.0 11.0 0.00 0.00 0.00 9 1018.0
20200812180445 92 159 10.0 11.0 0.00 0.00 0.00 10 1018.1
20200812175945 92 180 9.0 11.0 0.00 0.00 0.00 10 1018.7
20200812175448 91 174 9.0 11.0 0.00 0.00 0.00 10 1018.3
20200812174944 91 154 9.0 11.0 0.00 0.00 0.00 10 1018.4
20200812174444 91 179 7.0 11.0 0.00 0.00 0.00 10 1018.3
20200812173945 91 177 7.0 11.0 0.00 0.00 0.00 10 1018.4
20200812173445 90 175 6.0 9.0 0.00 0.00 0.00 10 1018.3
20200812173044 90 172 5.0 6.0 0.00 0.00 0.00 10 1018.4
20200812172514 90 166 6.0 10.0 0.00 0.00 0.00 11 1018.4
20200812171944 90 159 5.0 10.0 0.00 0.00 0.00 11 1018.3
20200812171444 90 188 6.0 10.0 0.00 0.00 0.00 11 1018.3
20200812170946 90 176 5.0 10.0 0.00 0.00 0.00 11 1018.3
20200812170444 89 181 7.0 8.0 0.00 0.00 0.00 12 1018.0
20200812165944 89 186 2.0 7.0 0.00 0.00 0.00 12 1018.3
20200812165444 89 184 3.0 6.0 0.00 0.00 0.00 12 1018.3
20200812164955 89 193 4.0 8.0 0.00 0.00 0.00 12 1018.2
20200812164445 89 197 6.0 8.0 0.00 0.00 0.00 12 1018.2
20200812163944 89 136 2.0 6.0 0.00 0.00 0.00 12 1018.3
20200812163443 88 210 5.0 5.0 0.00 0.00 0.00 13 1018.3
20200812162944 88 156 4.0 6.0 0.00 0.00 0.00 12 1018.3
20200812162443 89 199 5.0 6.0 0.00 0.00 0.00 11 1018.2
20200812161945 89 181 2.0 4.0 0.00 0.00 0.00 10 1018.1
20200812161443 88 63 2.0 4.0 0.00 0.00 0.00 9 1018.2
20200812160944 88 148 0.0 5.0 0.00 0.00 0.00 9 1018.1
20200812160443 88 153 3.0 5.0 0.00 0.00 0.00 9 1018.1
20200812155943 88 191 0.0 3.0 0.00 0.00 0.00 9 1018.3
20200812155446 87 185 3.0 4.0 0.00 0.00 0.00 9 1018.3
20200812154946 87 162 2.0 4.0 0.00 0.00 0.00 8 1018.4
20200812154450 87 152 1.0 5.0 0.00 0.00 0.00 9 1018.3
20200812153943 86 108 0.0 5.0 0.00 0.00 0.00 8 1018.1
20200812153443 86 109 3.0 5.0 0.00 0.00 0.00 8 1018.1
20200812152943 86 130 1.0 4.0 0.00 0.00 0.00 8 1018.1
20200812152443 86 127 1.0 3.0 0.00 0.00 0.00 8 1018.1
20200812151942 85 108 1.0 4.0 0.00 0.00 0.00 8 1018.1
20200812151443 84 93 3.0 4.0 0.00 0.00 0.00 8 1017.6
20200812150945 83 76 4.0 4.0 0.00 0.00 0.00 9 1017.6
20200812150442 83 60 2.0 6.0 0.00 0.00 0.00 9 1017.5
20200812145942 82 44 2.0 6.0 0.00 0.00 0.00 10 1017.4
20200812145442 81 51 5.0 8.0 0.00 0.00 0.00 10 1017.4
20200812144942 81 15 4.0 8.0 0.00 0.00 0.00 10 1017.4
20200812144443 80 20 7.0 8.0 0.00 0.00 0.00 10 1017.2
20200812143942 80 27 3.0 5.0 0.00 0.00 0.00 10 1017.2
20200812143442 80 68 2.0 3.0 0.00 0.00 0.00 11 1017.2
20200812142942 79 39 2.0 3.0 0.00 0.00 0.00 11 1017.3
20200812142442 79 49 1.0 2.0 0.00 0.00 0.00 11 1017.3
20200812141941 79 58 2.0 2.0 0.00 0.00 0.00 11 1017.3
20200812141442 79 65 0.0 0.0 0.00 0.00 0.00 11 1017.3
20200812140941 77 11 0.0 1.0 0.00 0.00 0.00 11 1016.9
20200812140441 76 360 0.0 3.0 0.00 0.00 0.00 12 1016.5
20200812135942 75 345 1.0 4.0 0.00 0.00 0.00 12 1017.3
20200812135445 74 330 2.0 5.0 0.00 0.00 0.00 12 1016.9
20200812134941 74 5 3.0 7.0 0.00 0.00 0.00 11 1016.8
20200812134442 73 359 5.0 7.0 0.00 0.00 0.00 11 1016.7
20200812133942 72 349 6.0 7.0 0.00 0.00 0.00 12 1016.6
20200812132941 71 354 5.0 7.0 0.00 0.00 0.00 11 1016.3
20200812132448 71 358 5.0 7.0 0.00 0.00 0.00 11 1016.4
20200812131941 71 354 5.0 7.0 0.00 0.00 0.00 11 1016.3
20200812131442 71 3 6.0 6.0 0.00 0.00 0.00 11 1016.3
20200812130941 70 356 6.0 6.0 0.00 0.00 0.00 11 1016.1
20200812130441 70 3 5.0 5.0 0.00 0.00 0.00 11 1016.1
20200812130043 70 5 5.0 6.0 0.00 0.00 0.00 11 1016.2
20200812125440 70 356 5.0 6.0 0.00 0.00 0.00 11 1016.2
20200812124941 71 349 4.0 7.0 0.00 0.00 0.00 11 1016.5
20200812124440 70 2 3.0 8.0 0.00 0.00 0.00 11 1016.2
20200812123940 70 344 6.0 8.0 0.00 0.00 0.00 11 1016.2
20200812123441 69 353 7.0 7.0 0.00 0.00 0.00 11 1016.0
20200812122940 70 352 3.0 7.0 0.00 0.00 0.00 11 1016.0
20200812122440 69 1 5.0 7.0 0.00 0.00 0.00 12 1016.0
20200812121941 69 354 5.0 6.0 0.00 0.00 0.00 11 1015.8
20200812121440 69 354 5.0 6.0 0.00 0.00 0.00 11 1015.8
20200812120941 69 14 4.0 6.0 0.00 0.00 0.00 11 1015.7
20200812120440 69 4 5.0 6.0 0.00 0.00 0.00 11 1015.7
20200812120017 69 2 3.0 5.0 0.00 0.00 0.00 11 1016.0
20200812115440 68 356 5.0 5.0 0.00 0.00 0.00 11 1015.8
20200812114940 70 328 2.0 5.0 0.00 0.00 0.00 11 1015.9
20200812114510 71 354 3.0 8.0 0.00 0.00 0.00 11 1016.1
20200812113940 71 4 5.0 8.0 0.00 0.00 0.00 10 1016.1
20200812113440 71 11 7.0 8.0 0.00 0.00 0.00 10 1016.0
20200812112940 70 9 6.0 8.0 0.00 0.00 0.00 11 1015.9
20200812112440 71 10 6.0 8.0 0.00 0.00 0.00 10 1016.0
20200812111939 71 355 5.0 8.0 0.00 0.00 0.00 10 1015.9
20200812111439 71 10 3.0 9.0 0.00 0.00 0.00 10 1015.8
20200812110940 71 7 6.0 9.0 0.00 0.00 0.00 10 1015.9
20200812110439 71 15 5.0 9.0 0.00 0.00 0.00 10 1016.0
20200812105939 71 17 7.0 8.0 0.00 0.00 0.00 10 1015.9
20200812105439 71 8 5.0 8.0 0.00 0.00 0.00 10 1016.0